This demonstration page uses our WeatherBlox Daily Observations layout. Learn more.

Left ArrowRight Arrow

Hourly Observations for April 30, 2021

Temp ( °F °C ) Dew Point ( °F °C ) Humidity (%) Winds ( mph kmh ) Pressure ( in mb ) Visibility ( mi km ) Precip ( " mm )
12:15 am 00:15 Clear 54 12 32 0 44 44 S 7 11 30.22 1023 10 16 0.00 0.00
12:35 am 00:35 Clear 55 12.6 32 0.2 43 43 S 5 7 30.21 1023 10 16 0.00 0.00
12:55 am 00:55 Clear 54 12.1 33 0.4 45 45 SSW 7 11 30.21 1023 10 16 0.00 0.00
1:15 am 01:15 Clear 55 12.5 32 0.1 43 43 SSW 8 13 30.20 1023 10 16 0.00 0.00
1:35 am 01:35 Clear 51 10.6 33 0.8 51 51 SW 6 9 30.22 1023 10 16 0.00 0.00
1:55 am 01:55 Clear 51 10.5 34 1.3 53 53 SW 7 11 30.22 1023 10 16 0.00 0.00
2:15 am 02:15 Clear 50 10.1 34 1.3 55 55 SW 8 13 30.22 1023 10 16 0.00 0.00
2:35 am 02:35 Clear 50 9.9 34 1 54 54 SW 8 13 30.21 1023 10 16 0.00 0.00
2:55 am 02:55 Clear 49 9.3 34 1 56 56 SSW 8 13 30.22 1023 10 16 0.00 0.00
3:15 am 03:15 Clear 50 9.9 33 0.7 53 53 SW 8 13 30.20 1023 10 16 0.00 0.00
3:35 am 03:35 Clear 50 10 33 0.5 52 52 SW 7 11 30.21 1023 10 16 0.00 0.00
3:55 am 03:55 Clear 51 10.3 33 0.4 51 51 SW 7 11 30.20 1023 10 16 0.00 0.00
4:15 am 04:15 Clear 50 10.2 32 0.2 50 50 WSW 6 9 30.21 1023 10 16 0.00 0.00
4:35 am 04:35 Clear 51 10.6 32 0.2 49 49 WSW 6 9 30.21 1023 10 16 0.00 0.00
4:55 am 04:55 Clear 52 11.3 32 0.1 46 46 WSW 7 11 30.20 1023 10 16 0.00 0.00
5:15 am 05:15 Clear 52 11.3 32 0 46 46 WSW 10 17 30.20 1023 10 16 0.00 0.00
5:35 am 05:35 Clear 53 11.4 32 0 46 46 WSW 9 15 30.20 1023 10 16 0.00 0.00
5:55 am 05:55 Clear 53 11.6 32 0 45 45 WSW 10 17 30.19 1022 10 16 0.00 0.00
6:15 am 06:15 Clear 53 11.8 32 0 45 45 WSW 10 17 30.19 1022 10 16 0.00 0.00
6:35 am 06:35 Clear 53 11.8 32 0.2 45 45 WSW 10 17 30.19 1022 10 16 0.00 0.00
6:55 am 06:55 Sunny 53 11.8 33 0.5 46 46 WSW 9 15 30.20 1023 10 16 0.00 0.00
7:15 am 07:15 Sunny 52 11.2 34 1.2 50 50 W 10 17 30.20 1023 10 16 0.00 0.00
7:35 am 07:35 Sunny 54 12.2 36 2 50 50 WSW 12 19 30.19 1022 10 16 0.00 0.00
7:55 am 07:55 Sunny 56 13.4 37 2.7 49 49 W 13 20 30.18 1022 10 16 0.00 0.00
8:15 am 08:15 Sunny 58 14.3 37 3 47 47 W 13 20 30.18 1022 10 16 0.00 0.00
8:35 am 08:35 Sunny 59 15.1 39 3.9 47 47 W 12 19 30.17 1022 10 16 0.00 0.00
8:55 am 08:55 Sunny 62 16.4 40 4.5 45 45 W 12 19 30.16 1021 10 16 0.00 0.00
9:15 am 09:15 Sunny 64 17.5 41 4.8 43 43 W 14 22 30.15 1021 10 16 0.00 0.00
9:35 am 09:35 Sunny 66 18.7 40 4.5 39 39 W 14 22 30.14 1021 10 16 0.00 0.00
9:55 am 09:55 Sunny 67 19.4 40 4.4 37 37 W 15 24 30.13 1020 10 16 0.00 0.00
10:15 am 10:15 Sunny 70 20.9 41 4.9 35 35 W 15 24 30.11 1020 10 16 0.00 0.00
10:35 am 10:35 Sunny 73 22.5 40 4.7 31 31 W 20 31 30.10 1019 10 16 0.00 0.00
10:55 am 10:55 Sunny 74 23.5 41 5.1 30 30 W 14 22 30.08 1019 10 16 0.00 0.00
11:15 am 11:15 Sunny 75 23.9 42 5.3 30 30 W 16 26 30.07 1018 10 16 0.00 0.00
11:35 am 11:35 Sunny 76 24.6 42 5.4 29 29 W 15 24 30.06 1018 10 16 0.00 0.00
11:55 am 11:55 Sunny 78 25.5 41 5.2 27 27 WSW 15 24 30.05 1018 10 16 0.00 0.00
12:15 pm 12:15 Sunny 79 26 41 5.1 26 26 WSW 9 15 30.04 1017 10 16 0.00 0.00
12:35 pm 12:35 Sunny 80 26.5 40 4.6 25 25 W 10 17 30.03 1017 10 16 0.00 0.00
12:55 pm 12:55 Sunny 80 26.8 41 5.2 25 25 WSW 8 13 30.02 1017 10 16 0.00 0.00
1:15 pm 13:15 Sunny 81 27 39 4 23 23 SW 8 13 30.01 1016 10 16 0.00 0.00
1:35 pm 13:35 Sunny 81 27.2 38 3.4 22 22 W 9 15 30.00 1016 10 16 0.00 0.00
1:55 pm 13:55 Sunny 81 27.2 39 4.1 23 23 WSW 13 20 29.99 1016 10 16 0.00 0.00
2:15 pm 14:15 Sunny 82 27.5 40 4.3 23 23 SW 6 9 29.99 1015 10 16 0.00 0.00
2:35 pm 14:35 Sunny 82 27.6 38 3.3 21 21 SW 10 17 29.99 1015 10 16 0.00 0.00
2:55 pm 14:55 Sunny 82 27.8 40 4.7 23 23 W 12 19 29.97 1015 10 16 0.00 0.00
3:15 pm 15:15 Sunny 83 28.5 41 4.9 22 22 WSW 8 13 29.95 1014 10 16 0.00 0.00
3:35 pm 15:35 Sunny 83 28.4 39 4 21 21 SSW 13 20 29.94 1014 10 16 0.00 0.00
3:55 pm 15:55 Sunny 83 28.6 39 3.9 21 21 SW 12 19 29.93 1013 10 16 0.00 0.00
4:15 pm 16:15 Sunny 84 29.1 39 3.9 20 20 SW 15 24 29.91 1013 10 16 0.00 0.00
4:35 pm 16:35 Sunny 84 28.7 38 3.3 20 20 SSW 13 20 29.91 1013 10 16 0.00 0.00
4:55 pm 16:55 Sunny 84 28.8 37 3 19 19 SW 12 19 29.91 1013 10 16 0.00 0.00
5:15 pm 17:15 Sunny 84 28.7 37 2.6 19 19 SSW 17 28 29.90 1012 10 16 0.00 0.00
5:35 pm 17:35 Sunny 84 28.7 37 2.9 19 19 SW 15 24 29.90 1012 10 16 0.00 0.00
5:55 pm 17:55 Sunny 83 28.6 36 2.4 18 18 SSW 15 24 29.89 1012 10 16 0.00 0.00
6:15 pm 18:15 Sunny 83 28.5 36 2.3 18 18 SW 18 30 29.89 1012 10 16 0.00 0.00
6:35 pm 18:35 Sunny 83 28.2 35 1.6 18 18 SW 14 22 29.89 1012 10 16 0.00 0.00
6:55 pm 18:55 Sunny 82 27.8 35 1.5 18 18 SSW 15 24 29.88 1012 10 16 0.00 0.00
7:15 pm 19:15 Sunny 81 27.4 34 0.9 18 18 SSW 17 28 29.88 1012 10 16 0.00 0.00
7:35 pm 19:35 Sunny 80 26.7 34 1.3 19 19 SSW 16 26 29.88 1012 10 16 0.00 0.00
7:55 pm 19:55 Sunny 78 25.6 35 1.8 21 21 SSW 15 24 29.89 1012 10 16 0.00 0.00
8:15 pm 20:15 Sunny 76 24.7 35 1.9 23 23 SSW 13 20 29.89 1012 10 16 0.00 0.00
8:35 pm 20:35 Clear 74 23.5 36 2.2 25 25 SSW 12 19 29.90 1012 10 16 0.00 0.00
8:55 pm 20:55 Clear 72 22.3 36 2.4 27 27 S 13 20 29.91 1013 10 16 0.00 0.00
9:15 pm 21:15 Clear 71 21.5 37 2.5 29 29 S 14 22 29.91 1013 10 16 0.00 0.00
9:35 pm 21:35 Clear 70 21.1 37 2.7 30 30 S 14 22 29.92 1013 10 16 0.00 0.00
9:55 pm 21:55 Clear 69 20.5 37 2.8 31 31 S 15 24 29.92 1013 10 16 0.00 0.00
10:15 pm 22:15 Clear 68 20.1 37 2.7 32 32 S 16 26 29.93 1013 10 16 0.00 0.00
10:35 pm 22:35 Clear 68 20.1 37 2.6 31 31 SSW 16 26 29.93 1013 10 16 0.00 0.00
10:55 pm 22:55 Clear 67 19.5 37 2.5 32 32 S 14 22 29.93 1014 10 16 0.00 0.00
11:15 pm 23:15 Clear 66 19.1 37 2.5 33 33 SSW 15 24 29.93 1014 10 16 0.00 0.00
11:35 pm 23:35 Clear 66 18.7 36 2.3 34 34 SSW 14 22 29.93 1013 10 16 0.00 0.00
11:55 pm 23:55 Clear 64 18 36 2.2 35 35 SSW 13 20 29.93 1014 10 16 0.00 0.00

Powered by AerisWeather